[[{"header":{"parameterUnit":"m.s-1","parameterCategory":1,"la1":30.2991,"la2":30.254,"lo1":-89.0895,"lo2":-89.0444,"dy":0.0017,"dx":0.0017,"nx":28,"ny":28,"refTime":"2025-04-10T03:00:00:Z","depth":0,"parameterNumber":2,"parameterNumberName":"U-component_of_WINDS"},"data":[0,0,0,0,0,0,0,0,0,0,0,0,0,0,0,0,0,0,0,0,0,0,0,0,0,0,0,0,0,0,0,0,0,0,0,0,0,0,0,0,0,0,0,0,0,0,0,0,0,0,0,0,0,0,0,0,0,0,1.8468,1.8466,0,1.8291,1.8289,1.8287,1.807,1.8067,1.8063,1.806,1.7884,1.7882,1.7881,0,0,0,0,0,0,0,0,0,0,0,0,0,1.862,1.8618,1.8468,1.8466,1.8464,1.8292,1.8289,1.8287,1.8071,1.8066,1.8062,1.8058,1.7884,1.7883,1.7881,0,0,0,0,0,0,0,0,0,0,0,0,0,1.851,1.8618,1.8469,1.8335,1.8321,1.8292,1.8289,1.8286,1.8072,1.8066,1.8061,1.8056,1.7885,1.7883,1.7881,1.797,0,0,1.7874,1.7873,0,0,0,0,0,0,0,0,1.8517,1.8505,1.8357,1.8344,1.8329,1.8197,1.8278,1.818,1.8073,1.8167,1.806,1.8054,1.7993,1.7981,1.796,1.7962,1.7954,1.7874,1.7872,1.7871,1.7871,0,0,0,0,0,0,0,1.8524,1.8511,1.8398,1.8355,1.8338,1.8284,1.8263,1.8259,1.8111,1.8158,1.8142,1.8124,1.7984,1.7962,1.7954,1.7952,1.7874,1.7872,1.787,1.7869,1.8015,1.802,0,0,0,0,0,0,1.8552,1.8519,1.8404,1.8393,1.8412,1.8286,1.8262,1.8245,1.811,1.8085,1.8128,1.8114,1.7969,1.7957,1.7947,1.804,1.7871,1.7869,1.7868,1.801,1.8016,1.8021,0,0,0,0,0,0,1.8556,1.8543,1.8411,1.8451,1.843,1.8289,1.8271,1.8244,1.8222,1.8088,1.8061,1.8133,1.7964,1.795,1.7965,1.8031,1.7868,1.7866,1.8003,1.8012,1.8019,1.8229,0,0,0,0,0,0,1.8561,1.8546,1.8578,1.8454,1.8429,1.8432,1.8275,1.8244,1.8218,1.8198,1.8085,1.8061,1.7959,1.7969,1.7963,1.8025,1.7864,1.7997,1.8007,1.8016,1.8216,1.8243,1.8267,0,0,0,0,0,1.8567,1.8647,1.8581,1.8569,1.8466,1.8436,1.8422,1.8301,1.8225,1.8255,1.8169,1.8065,1.8025,1.7973,1.7963,1.8026,1.7992,1.8004,1.8015,1.8204,1.8238,1.8266,0,0,0,0,0,0,1.8785,1.8628,1.8554,1.8595,1.853,1.8399,1.8435,1.8341,1.8298,1.8282,1.8135,1.8111,1.8144,1.8086,1.803,1.8104,1.7993,1.8004,1.814,1.8171,1.8196,1.8209,1.7863,0,0,0,0,0,1.8837,1.8825,1.8689,1.8738,1.8709,1.8579,1.8561,1.8473,1.8401,1.8373,1.8287,1.8223,1.8194,1.818,1.8147,1.8207,1.8178,1.8245,1.8271,1.8292,1.8303,1.8328,1.8355,1.806,1.806,1.806,0,0,1.8946,1.8859,1.8861,1.878,1.8719,1.871,1.8557,1.8555,1.8546,1.8373,1.838,1.8316,1.8233,1.827,1.8282,1.8223,1.8378,1.8307,1.8326,1.8324,1.8342,1.8371,1.8396,1.8068,1.8066,1.8065,0,0,1.9139,1.9073,1.9105,1.9047,1.8957,1.8868,1.8877,1.876,1.8709,1.8714,1.8583,1.8572,1.8528,1.8473,1.844,1.8611,1.8513,1.8604,1.8738,1.8764,1.8787,1.8807,1.8865,1.8889,1.8615,1.8616,1.8616,0,1.9286,1.9266,1.9134,1.9138,1.9106,1.8947,1.8978,1.8929,1.8834,1.8816,1.8751,1.869,1.8623,1.8644,1.8685,1.8665,1.8668,1.8616,1.8794,1.8812,1.8829,1.8883,1.8906,1.8627,1.8626,1.8625,1.8624,0,1.945,1.9438,1.9476,1.9385,1.9357,1.9376,1.9246,1.9234,1.9149,1.9068,1.9074,1.8988,1.8934,1.8933,1.8851,1.8941,1.8907,1.8821,1.8706,1.8871,1.8919,1.894,1.8644,1.864,1.8636,1.8634,0,0,1.9776,1.961,1.9626,1.9582,1.947,1.9458,1.9469,1.9414,1.9406,1.9345,1.935,1.9315,1.9233,1.9195,1.9105,1.9129,1.9266,1.9038,1.9033,1.9082,1.9358,1.9424,1.945,1.9201,1.9204,1.9207,1.9365,0,1.9947,1.9954,1.9835,1.9876,1.9862,1.971,1.9719,1.9651,1.9576,1.9554,1.947,1.9447,1.9341,1.9317,1.9333,1.9246,1.932,1.9233,1.9203,1.9204,1.9227,1.9475,1.9545,1.9698,1.9383,1.9386,1.9388,0,2.0148,2.0096,2.0135,2.0018,2.0008,2.0018,1.9957,1.9938,1.9858,1.9801,1.9758,1.9654,1.9656,1.9549,1.9549,1.9493,1.9473,1.9429,1.9431,1.9423,1.9306,1.9473,1.9744,1.9767,1.9418,1.9415,1.9413,0,2.0379,2.032,2.0334,2.0301,2.0166,2.0177,2.0121,2.0036,2.001,1.9957,1.9938,1.9887,1.9859,1.9822,1.9707,1.964,1.972,1.9603,1.9672,1.9675,1.9696,1.9696,1.9966,1.9686,1.9686,1.9686,1.9685,0,2.0582,2.0611,2.0435,2.0445,2.0472,2.0335,2.0367,2.0296,2.0221,2.0214,2.008,2.0076,1.9925,1.9904,1.9815,1.9827,1.9816,1.977,1.9745,1.9781,1.9787,1.9765,1.9751,1.9692,1.969,1.9689,1.9688,0,2.0845,2.0729,2.0734,2.0605,2.0573,2.06,2.0489,2.0492,2.0407,2.0399,2.039,2.0257,2.0225,2.0107,2.0047,1.9986,2.0027,1.9981,2.0054,2.0038,2.0113,2.0107,2.0379,2.0406,2.0112,2.0114,2.0117,0,2.0981,2.1,2.0872,2.0857,2.0806,2.0784,2.0756,2.0621,2.0597,2.0506,2.052,2.0477,2.0435,2.0391,2.029,2.0243,2.0193,2.0292,2.0186,2.022,2.0192,2.0192,2.0192,2.0315,2.0319,2.0322,2.0324,0,2.1235,2.1176,2.114,2.1084,2.1053,2.1003,2.0945,2.094,2.079,2.077,2.0734,2.0702,2.0639,2.0598,2.0533,2.0476,2.0376,2.0358,2.0371,2.0407,2.0448,2.0425,2.0115,2.0353,2.035,2.0348,2.0346,2.0345,2.1437,2.1445,2.1356,2.132,2.1262,2.121,2.1205,2.1119,2.1087,2.1024,2.0947,2.0921,2.0838,2.074,2.0691,2.0668,2.0613,2.0633,2.0637,2.0644,2.066,2.0453,2.0656,2.0655,2.0655,2.0654,2.0653,0,2.1682,2.1616,2.1585,2.1506,2.1478,2.1384,2.1314,2.1297,2.1275,2.1205,2.1166,2.1125,2.1083,2.0978,2.0926,2.0929,2.0881,2.0919,2.0917,2.0905,2.0714,2.0707,2.0959,2.0959,2.0958,2.0958,2.0958,2.0958,2.1806,2.1814,2.1745,2.1723,2.1656,2.1629,2.1597,2.1548,2.1491,2.145,2.1415,2.1346,2.1262,2.1202,2.116,2.1129,2.1116,2.117,2.1125,2.0948,2.0919,2.0891,2.0884,2.1168,2.1169,2.1317,2.1319,2.132]},{"header":{"parameterUnit":"m.s-1","parameterCategory":1,"la1":30.2991,"la2":30.254,"lo1":-89.0895,"lo2":-89.0444,"dy":0.0017,"dx":0.0017,"nx":28,"ny":28,"refTime":"2025-04-10T03:00:00:Z","depth":0,"parameterNumber":3,"parameterNumberName":"V-component_of_WINDS"},"data":[0,0,0,0,0,0,0,0,0,0,0,0,0,0,0,0,0,0,0,0,0,0,0,0,0,0,0,0,0,0,0,0,0,0,0,0,0,0,0,0,0,0,0,0,0,0,0,0,0,0,0,0,0,0,0,0,0,0,2.3272,2.3276,0,2.3649,2.3654,2.3658,2.3781,2.3779,2.3777,2.3776,2.4163,2.4174,2.4186,0,0,0,0,0,0,0,0,0,0,0,0,0,2.2657,2.2668,2.3271,2.3276,2.3281,2.3649,2.3654,2.3659,2.3781,2.3779,2.3777,2.3775,2.4159,2.4173,2.4187,0,0,0,0,0,0,0,0,0,0,0,0,0,2.2968,2.2671,2.3271,2.3386,2.34,2.3648,2.3654,2.366,2.3781,2.3779,2.3776,2.3774,2.4154,2.4171,2.4189,2.4349,0,0,2.4243,2.4251,0,0,0,0,0,0,0,0,2.295,2.2991,2.3365,2.3379,2.3395,2.3665,2.3579,2.3891,2.3782,2.3637,2.3776,2.3773,2.3999,2.4029,2.4106,2.4367,2.4383,2.4245,2.4255,2.4263,2.4268,0,0,0,0,0,0,0,2.2929,2.2975,2.3421,2.337,2.3388,2.3419,2.3461,2.3639,2.3827,2.3649,2.3659,2.3702,2.4007,2.4088,2.4116,2.4389,2.4244,2.426,2.4271,2.4278,2.48,2.4803,0,0,0,0,0,0,2.2888,2.2956,2.3409,2.3432,2.3162,2.3432,2.3479,2.3581,2.3826,2.3861,2.3704,2.3706,2.4059,2.4095,2.413,2.4334,2.4263,2.428,2.429,2.4797,2.4801,2.4804,0,0,0,0,0,0,2.2874,2.2927,2.3394,2.3197,2.3259,2.3446,2.356,2.359,2.3671,2.3867,2.3901,2.3752,2.4059,2.4105,2.4293,2.4349,2.4288,2.4304,2.4793,2.4798,2.4803,2.4741,0,0,0,0,0,0,2.2856,2.2921,2.2984,2.3198,2.3269,2.3551,2.3563,2.3599,2.3702,2.3709,2.3922,2.3954,2.406,2.4266,2.4311,2.4372,2.4318,2.4789,2.4795,2.4801,2.4739,2.4744,2.4747,0,0,0,0,0,2.2833,2.2952,2.2986,2.304,2.3351,2.3554,2.3595,2.3714,2.3706,2.377,2.3896,2.3948,2.4335,2.4284,2.4336,2.4403,2.4786,2.4794,2.4801,2.4738,2.4743,2.4747,0,0,0,0,0,0,2.274,2.2982,2.3023,2.3214,2.3362,2.3574,2.366,2.3716,2.387,2.387,2.4011,2.4058,2.4236,2.4339,2.4278,2.4571,2.4563,2.4581,2.4497,2.4504,2.4508,2.448,2.4333,0,0,0,0,0,2.2741,2.2886,2.3089,2.3238,2.331,2.3471,2.3564,2.3643,2.3803,2.3866,2.4006,2.4159,2.4315,2.4415,2.457,2.4754,2.4803,2.4826,2.483,2.4832,2.4846,2.4951,2.4964,2.4828,2.4828,2.4828,0,0,2.2747,2.2896,2.2979,2.3223,2.3347,2.3494,2.3524,2.3677,2.3788,2.389,2.4077,2.4184,2.4364,2.4551,2.464,2.4642,2.4894,2.4841,2.4841,2.4855,2.496,2.4972,2.4984,2.4833,2.4832,2.4831,0,0,2.2831,2.2958,2.3096,2.322,2.3407,2.3514,2.3546,2.375,2.3825,2.4015,2.4095,2.4227,2.4493,2.4618,2.4717,2.4846,2.49,2.4892,2.4913,2.5014,2.5025,2.5035,2.5081,2.5096,2.4906,2.4905,2.4905,0,2.2813,2.3037,2.316,2.331,2.3415,2.3513,2.3655,2.3769,2.3997,2.4067,2.4065,2.4401,2.4529,2.4747,2.4778,2.4855,2.4897,2.4869,2.5013,2.5025,2.5036,2.5082,2.5099,2.4903,2.4904,2.4904,2.4904,0,2.3006,2.316,2.3249,2.3466,2.3581,2.3725,2.3871,2.3973,2.4041,2.4147,2.4338,2.4495,2.4683,2.4741,2.4809,2.4968,2.4963,2.4985,2.4981,2.5045,2.509,2.5109,2.49,2.4901,2.4902,2.4902,0,0,2.3044,2.3326,2.3357,2.3457,2.367,2.3792,2.394,2.4124,2.4208,2.4362,2.449,2.4712,2.4734,2.4845,2.4928,2.5017,2.5109,2.5029,2.5035,2.5038,2.5295,2.5277,2.5295,2.5146,2.5149,2.5153,2.528,0,2.3156,2.3425,2.354,2.3757,2.39,2.3995,2.4125,2.4269,2.4372,2.4509,2.4623,2.4778,2.4795,2.4863,2.4954,2.5078,2.5163,2.5071,2.5267,2.5272,2.5219,2.5319,2.5302,2.5414,2.5298,2.5301,2.5304,0,2.3323,2.3476,2.3707,2.3903,2.3967,2.4081,2.4259,2.4388,2.4554,2.4623,2.4746,2.4825,2.4984,2.4967,2.5189,2.5124,2.521,2.5283,2.529,2.5314,2.5292,2.5346,2.5453,2.547,2.5333,2.533,2.5328,0,2.3327,2.3592,2.3764,2.3846,2.4079,2.4157,2.4257,2.4421,2.4524,2.4678,2.4746,2.4917,2.5011,2.5141,2.5264,2.524,2.5474,2.5467,2.5535,2.5532,2.5581,2.5576,2.5704,2.5635,2.5635,2.5634,2.5634,0,2.3441,2.3578,2.3769,2.3875,2.4032,2.4162,2.4314,2.4421,2.4566,2.4694,2.4787,2.4905,2.5059,2.5198,2.5294,2.5463,2.5504,2.5564,2.5588,2.5557,2.5549,2.5616,2.5612,2.5639,2.5638,2.5637,2.5636,0,2.3473,2.3606,2.38,2.4004,2.4058,2.4165,2.4339,2.4446,2.4552,2.4714,2.4759,2.4927,2.5094,2.5229,2.5447,2.5512,2.5689,2.5716,2.5633,2.5646,2.5706,2.5699,2.5882,2.5913,2.5821,2.5822,2.5823,0,2.3537,2.3645,2.3859,2.3952,2.4051,2.4199,2.4304,2.4436,2.4542,2.4738,2.4821,2.4995,2.5141,2.5404,2.5545,2.5712,2.5745,2.5797,2.5771,2.5735,2.5746,2.5738,2.575,2.58,2.58,2.5801,2.5801,0,2.3637,2.3697,2.3845,2.4015,2.4138,2.4279,2.4422,2.4492,2.4651,2.4765,2.4937,2.505,2.5273,2.5444,2.5626,2.573,2.5792,2.5808,2.5833,2.5802,2.5749,2.5779,2.5641,2.5803,2.5803,2.5803,2.5803,2.5803,2.3688,2.3788,2.3954,2.4116,2.4237,2.4368,2.4478,2.4598,2.4744,2.4935,2.5004,2.5181,2.5344,2.5595,2.5699,2.5839,2.5844,2.588,2.5889,2.5896,2.5892,2.5726,2.5872,2.5873,2.5873,2.5873,2.5873,0,2.3793,2.3904,2.4051,2.4248,2.4374,2.4421,2.4581,2.4684,2.4838,2.4985,2.5126,2.5324,2.549,2.5643,2.5817,2.5899,2.5932,2.5941,2.5936,2.5959,2.5877,2.5839,2.5911,2.5911,2.5911,2.5911,2.5911,2.5911,2.3863,2.4034,2.4114,2.4347,2.4458,2.4631,2.4719,2.484,2.4958,2.5174,2.5312,2.5411,2.5561,2.5745,2.59,2.5941,2.6001,2.6002,2.605,2.5971,2.5965,2.596,2.5924,2.6013,2.6013,2.612,2.6121,2.6122]}]]